Radiation Dose at Monitoring Post of Fukushima Daini Nuclear Power Station
Date,Time,MP-1(microSv/h),MP-2(microSv/h),MP-3(microSv/h),MP-4(microSv/h),MP-5(microSv/h),MP-6(microSv/h),MP-7(microSv/h),Wind Direction,Wind Velocity(m/s),Rain
2022/01/22,00:00,0.160,0.146,0.229,0.222,0.224,0.125,0.080,west-northwest,1.8,No
2022/01/22,00:10,0.159,0.146,0.228,0.221,0.224,0.126,0.080,west,1.3,No
2022/01/22,00:20,0.160,0.147,0.230,0.222,0.223,0.126,0.079,west-southwest,1.9,No
2022/01/22,00:30,0.159,0.146,0.230,0.221,0.223,0.126,0.080,west,1.9,No
2022/01/22,00:40,0.159,0.146,0.228,0.221,0.222,0.125,0.080,west-northwest,1.9,No
2022/01/22,00:50,0.159,0.147,0.229,0.222,0.223,0.125,0.080,west-northwest,2.2,No
2022/01/22,01:00,0.159,0.147,0.230,0.222,0.222,0.125,0.081,west-northwest,1.9,No
2022/01/22,01:10,0.159,0.146,0.229,0.222,0.224,0.124,0.079,northwest,1.9,No
2022/01/22,01:20,0.158,0.145,0.228,0.223,0.224,0.125,0.080,west-northwest,1.0,No
2022/01/22,01:30,0.160,0.147,0.229,0.223,0.224,0.125,0.079,west-northwest,1.6,No
2022/01/22,01:40,0.159,0.145,0.229,0.223,0.222,0.125,0.079,west,2.2,No
2022/01/22,01:50,0.159,0.147,0.229,0.222,0.223,0.125,0.080,west,3.8,No
2022/01/22,02:00,0.158,0.146,0.229,0.222,0.224,0.125,0.080,west,5.0,No
2022/01/22,02:10,0.159,0.146,0.229,0.221,0.224,0.126,0.080,west-northwest,5.7,No
2022/01/22,02:20,0.159,0.146,0.230,0.222,0.224,0.125,0.080,west-northwest,6.7,No
2022/01/22,02:30,0.159,0.146,0.230,0.222,0.224,0.126,0.080,west,4.4,No
2022/01/22,02:40,0.158,0.146,0.230,0.222,0.223,0.126,0.080,west-northwest,5.5,No
2022/01/22,02:50,0.159,0.146,0.230,0.223,0.222,0.125,0.080,west,5.1,No
2022/01/22,03:00,0.159,0.146,0.229,0.222,0.223,0.126,0.080,west,5.4,No
2022/01/22,03:10,0.159,0.146,0.229,0.221,0.224,0.125,0.080,west-northwest,4.7,No
2022/01/22,03:20,0.159,0.146,0.229,0.220,0.224,0.125,0.080,west-northwest,5.0,No
2022/01/22,03:30,0.159,0.146,0.230,0.223,0.223,0.125,0.080,west-northwest,3.7,No
2022/01/22,03:40,0.159,0.146,0.228,0.223,0.223,0.125,0.080,west-northwest,3.5,No
2022/01/22,03:50,0.159,0.146,0.229,0.222,0.222,0.126,0.080,west-northwest,4.3,No
2022/01/22,04:00,0.160,0.146,0.229,0.221,0.224,0.126,0.081,west-northwest,4.8,No
2022/01/22,04:10,0.159,0.146,0.229,0.222,0.225,0.126,0.080,west-northwest,5.0,No
2022/01/22,04:20,0.159,0.146,0.228,0.222,0.223,0.126,0.079,west-northwest,5.0,No
2022/01/22,04:30,0.160,0.145,0.230,0.221,0.224,0.125,0.080,west-northwest,4.9,No
2022/01/22,04:40,0.159,0.145,0.228,0.223,0.224,0.125,0.080,west,5.9,No
2022/01/22,04:50,0.159,0.145,0.229,0.222,0.222,0.125,0.080,west-northwest,6.8,No
2022/01/22,05:00,0.160,0.146,0.229,0.221,0.223,0.125,0.080,west-northwest,5.7,No
2022/01/22,05:10,0.160,0.146,0.229,0.221,0.223,0.125,0.080,west-northwest,5.8,No
2022/01/22,05:20,0.159,0.145,0.229,0.222,0.222,0.126,0.080,west-northwest,6.0,No
2022/01/22,05:30,0.159,0.145,0.229,0.222,0.223,0.124,0.080,west-northwest,5.2,No
2022/01/22,05:40,0.159,0.145,0.229,0.221,0.223,0.125,0.080,west-northwest,5.0,No
2022/01/22,05:50,0.158,0.146,0.229,0.221,0.223,0.126,0.080,west-northwest,4.4,No
2022/01/22,06:00,0.159,0.146,0.229,0.222,0.223,0.125,0.080,west-northwest,4.4,No
2022/01/22,06:10,0.159,0.146,0.228,0.222,0.223,0.125,0.080,west,5.1,No
2022/01/22,06:20,0.159,0.146,0.228,0.221,0.223,0.125,0.080,west-northwest,5.0,No
2022/01/22,06:30,0.159,0.146,0.229,0.222,0.223,0.125,0.080,west-northwest,2.7,No
2022/01/22,06:40,0.160,0.146,0.230,0.223,0.224,0.125,0.079,west,3.2,No
2022/01/22,06:50,0.159,0.146,0.230,0.221,0.224,0.125,0.080,west,4.9,No
2022/01/22,07:00,0.159,0.145,0.229,0.221,0.224,0.126,0.080,west-northwest,3.5,No
2022/01/22,07:10,0.159,0.146,0.228,0.221,0.224,0.125,0.080,west,4.4,No
2022/01/22,07:20,0.158,0.145,0.228,0.221,0.224,0.125,0.080,west,6.4,No
2022/01/22,07:30,0.160,0.146,0.228,0.221,0.225,0.125,0.080,west-northwest,6.2,No
2022/01/22,07:40,0.158,0.145,0.229,0.221,0.224,0.126,0.080,west,7.0,No
2022/01/22,07:50,0.158,0.146,0.230,0.222,0.223,0.125,0.079,west,6.9,No
2022/01/22,08:00,0.159,0.145,0.230,0.222,0.224,0.125,0.080,west-northwest,7.3,No
2022/01/22,08:10,0.159,0.145,0.230,0.222,0.223,0.126,0.080,west,6.5,No
2022/01/22,08:20,0.158,0.146,0.229,0.221,0.223,0.126,0.079,west,5.1,No
2022/01/22,08:30,0.159,0.146,0.229,0.221,0.224,0.126,0.079,west,4.4,No
2022/01/22,08:40,0.158,0.145,0.229,0.222,0.224,0.125,0.080,west-northwest,4.9,No
2022/01/22,08:50,0.159,0.146,0.229,0.220,0.224,0.125,0.080,west-northwest,4.3,No
2022/01/22,09:00,0.159,0.146,0.229,0.222,0.223,0.126,0.080,west-northwest,5.5,No
2022/01/22,09:10,0.159,0.146,0.229,0.222,0.224,0.126,0.079,west,6.8,No
2022/01/22,09:20,0.158,0.146,0.229,0.221,0.224,0.125,0.079,west-northwest,6.9,No
2022/01/22,09:30,0.159,0.146,0.229,0.219,0.224,0.125,0.079,west-northwest,5.2,No
2022/01/22,09:40,0.159,0.146,0.228,0.220,0.223,0.126,0.080,west-northwest,5.4,No
2022/01/22,09:50,0.159,0.146,0.229,0.221,0.223,0.126,0.080,west,4.1,No
2022/01/22,10:00,0.159,0.145,0.230,0.221,0.223,0.127,0.079,west-northwest,3.8,No
2022/01/22,10:10,0.160,0.146,0.229,0.221,0.222,0.126,0.079,west-northwest,3.8,Yes
2022/01/22,10:20,0.159,0.146,0.229,0.221,0.223,0.126,0.079,west-northwest,5.4,Yes
2022/01/22,10:30,0.158,0.147,0.228,0.220,0.223,0.125,0.080,west-northwest,5.5,No
2022/01/22,10:40,0.158,0.145,0.228,0.222,0.222,0.125,0.079,west-northwest,6.6,No
2022/01/22,10:50,0.158,0.145,0.229,0.221,0.224,0.126,0.079,west-northwest,5.9,No
2022/01/22,11:00,0.158,0.146,0.228,0.221,0.223,0.126,0.079,west-northwest,6.3,No
2022/01/22,11:10,0.158,0.146,0.229,0.222,0.225,0.126,0.080,west-northwest,5.5,No
2022/01/22,11:20,0.159,0.145,0.228,0.222,0.224,0.126,0.079,west,5.0,No
2022/01/22,11:30,0.157,0.146,0.228,0.221,0.223,0.126,0.079,northwest,4.4,No
2022/01/22,11:40,0.159,0.144,0.229,0.222,0.224,0.126,0.080,northwest,5.8,No
2022/01/22,11:50,0.158,0.145,0.228,0.221,0.223,0.125,0.079,west-northwest,5.7,No
2022/01/22,12:00,0.158,0.146,0.228,0.221,0.223,0.126,0.079,west-northwest,7.2,No
2022/01/22,12:10,0.159,0.145,0.228,0.222,0.222,0.126,0.079,west-northwest,7.2,No
2022/01/22,12:20,0.158,0.144,0.228,0.220,0.224,0.126,0.079,west-northwest,8.0,No
2022/01/22,12:30,0.159,0.146,0.228,0.222,0.222,0.126,0.079,west-northwest,6.0,No
2022/01/22,12:40,0.159,0.145,0.228,0.221,0.224,0.125,0.079,west-northwest,7.0,No
2022/01/22,12:50,0.158,0.146,0.228,0.221,0.225,0.125,0.079,west-northwest,4.8,No
2022/01/22,13:00,0.158,0.146,0.228,0.220,0.225,0.125,0.080,west-northwest,6.9,No
2022/01/22,13:10,0.159,0.145,0.228,0.221,0.224,0.126,0.079,northwest,7.3,No
2022/01/22,13:20,0.158,0.146,0.229,0.221,0.223,0.126,0.079,west-northwest,5.7,No
2022/01/22,13:30,0.158,0.145,0.230,0.221,0.224,0.125,0.079,west-northwest,7.4,No
2022/01/22,13:40,0.158,0.146,0.229,0.221,0.223,0.125,0.080,west-northwest,8.1,No
2022/01/22,13:50,0.159,0.145,0.227,0.221,0.224,0.126,0.080,west-northwest,6.3,No
2022/01/22,14:00,0.159,0.145,0.227,0.219,0.225,0.126,0.080,west-northwest,6.5,No
2022/01/22,14:10,0.158,0.146,0.229,0.222,0.223,0.126,0.079,west-northwest,5.4,No
2022/01/22,14:20,0.159,0.146,0.229,0.222,0.225,0.126,0.080,west-northwest,6.1,No
2022/01/22,14:30,0.159,0.146,0.228,0.222,0.223,0.126,0.080,west-northwest,5.2,No
2022/01/22,14:40,0.158,0.146,0.229,0.223,0.224,0.125,0.079,west-northwest,4.9,No
2022/01/22,14:50,0.159,0.145,0.231,0.222,0.223,0.125,0.080,west-northwest,6.5,No
2022/01/22,15:00,0.159,0.146,0.229,0.221,0.224,0.125,0.080,west,6.0,No
2022/01/22,15:10,0.158,0.145,0.230,0.222,0.224,0.126,0.079,west-northwest,6.6,No
2022/01/22,15:20,0.158,0.146,0.229,0.221,0.224,0.126,0.080,west-northwest,7.0,No
2022/01/22,15:30,0.160,0.146,0.230,0.222,0.224,0.126,0.079,west-northwest,6.8,No
2022/01/22,15:40,0.159,0.146,0.228,0.222,0.224,0.125,0.080,west-northwest,8.4,No
2022/01/22,15:50,0.159,0.146,0.230,0.222,0.224,0.126,0.079,west-northwest,6.3,No
2022/01/22,16:00,0.159,0.146,0.228,0.222,0.224,0.125,0.079,west-northwest,5.8,No
2022/01/22,16:10,0.159,0.147,0.229,0.222,0.224,0.125,0.080,northwest,4.4,No
2022/01/22,16:20,0.159,0.146,0.228,0.222,0.223,0.126,0.079,west-northwest,2.4,No
2022/01/22,16:30,0.158,0.146,0.229,0.222,0.224,0.125,0.079,west-northwest,3.7,No
2022/01/22,16:40,0.160,0.147,0.228,0.222,0.225,0.127,0.079,west-northwest,5.2,No
2022/01/22,16:50,0.158,0.146,0.229,0.222,0.223,0.126,0.079,west-northwest,6.0,No
2022/01/22,17:00,0.159,0.145,0.229,0.222,0.223,0.127,0.080,west-northwest,6.2,No
2022/01/22,17:10,0.158,0.147,0.228,0.222,0.224,0.125,0.078,west-northwest,5.5,No
2022/01/22,17:20,0.159,0.146,0.228,0.222,0.223,0.126,0.079,west-northwest,4.9,No
2022/01/22,17:30,0.159,0.146,0.229,0.222,0.224,0.126,0.080,northwest,3.8,No
2022/01/22,17:40,0.159,0.147,0.230,0.222,0.223,0.126,0.079,northwest,3.5,No
2022/01/22,17:50,0.160,0.146,0.229,0.222,0.224,0.125,0.080,northwest,2.5,No
2022/01/22,18:00,0.158,0.146,0.229,0.222,0.224,0.126,0.080,north-northwest,2.7,No
2022/01/22,18:10,0.159,0.146,0.230,0.222,0.223,0.126,0.080,northwest,3.0,No
2022/01/22,18:20,0.159,0.146,0.230,0.222,0.223,0.126,0.079,west-northwest,4.3,No
2022/01/22,18:30,0.158,0.146,0.230,0.222,0.224,0.125,0.080,west-northwest,3.3,No
2022/01/22,18:40,0.159,0.146,0.229,0.222,0.223,0.125,0.079,northwest,4.6,No
2022/01/22,18:50,0.159,0.146,0.230,0.223,0.223,0.124,0.080,west-northwest,6.6,No
2022/01/22,19:00,0.159,0.146,0.229,0.222,0.223,0.126,0.079,west-northwest,6.1,No
2022/01/22,19:10,0.158,0.146,0.229,0.222,0.223,0.126,0.080,west-northwest,6.2,No
2022/01/22,19:20,0.158,0.145,0.228,0.222,0.224,0.126,0.079,west-northwest,6.5,No
2022/01/22,19:30,0.159,0.146,0.228,0.221,0.224,0.125,0.079,west-northwest,6.5,No
2022/01/22,19:40,0.159,0.146,0.229,0.222,0.225,0.125,0.080,west-northwest,7.1,No
2022/01/22,19:50,0.160,0.146,0.230,0.221,0.223,0.126,0.079,west-northwest,7.1,No
2022/01/22,20:00,0.159,0.147,0.229,0.222,0.224,0.125,0.079,west-northwest,5.4,No
2022/01/22,20:10,0.158,0.146,0.230,0.221,0.224,0.126,0.080,west-northwest,4.6,No
2022/01/22,20:20,0.160,0.147,0.227,0.222,0.224,0.125,0.080,west-northwest,4.4,No
2022/01/22,20:30,0.159,0.146,0.229,0.221,0.224,0.125,0.080,northwest,4.9,No
2022/01/22,20:40,0.158,0.145,0.229,0.222,0.224,0.125,0.081,northwest,7.2,No
2022/01/22,20:50,0.159,0.146,0.229,0.223,0.224,0.125,0.080,northwest,8.5,No
2022/01/22,21:00,0.157,0.145,0.231,0.222,0.223,0.126,0.080,west-northwest,8.9,No
2022/01/22,21:10,0.159,0.146,0.229,0.222,0.222,0.125,0.080,west-northwest,12.7,No
2022/01/22,21:20,0.159,0.146,0.230,0.222,0.224,0.125,0.079,west-northwest,8.0,No
2022/01/22,21:30,0.158,0.145,0.228,0.224,0.224,0.126,0.080,northwest,6.0,No
2022/01/22,21:40,0.159,0.146,0.228,0.222,0.223,0.126,0.079,northwest,4.3,No
2022/01/22,21:50,0.159,0.147,0.229,0.221,0.224,0.126,0.079,northwest,3.8,No
2022/01/22,22:00,0.159,0.147,0.230,0.222,0.224,0.126,0.080,northwest,3.8,No
2022/01/22,22:10,0.159,0.146,0.230,0.222,0.223,0.125,0.080,northwest,2.2,No
2022/01/22,22:20,0.158,0.146,0.230,0.222,0.224,0.125,0.080,west-northwest,0.7,No
2022/01/22,22:30,0.159,0.146,0.228,0.224,0.223,0.125,0.079,north-northwest,1.4,No
2022/01/22,22:40,0.159,0.145,0.230,0.222,0.223,0.125,0.079,-,CALM,No
2022/01/22,22:50,0.159,0.147,0.228,0.221,0.224,0.126,0.080,-,CALM,No
2022/01/22,23:00,0.159,0.146,0.230,0.221,0.223,0.125,0.080,north,0.7,No
2022/01/22,23:10,0.159,0.146,0.230,0.222,0.224,0.125,0.080,north,1.3,No
2022/01/22,23:20,0.159,0.146,0.229,0.222,0.224,0.125,0.079,north,0.7,No
2022/01/22,23:30,0.159,0.146,0.229,0.221,0.223,0.125,0.080,north-northwest,0.5,No
2022/01/22,23:40,0.159,0.146,0.229,0.221,0.223,0.127,0.080,northeast,1.0,No
2022/01/22,23:50,0.158,0.146,0.230,0.221,0.225,0.126,0.079,north-northeast,1.3,No
